Home   Weather   Dushanbe   Past weeks

Flag for Tajikistan Past Weather in Dushanbe, Tajikistan — Yesterday and Last 2 Weeks

Now
72 °F

Clear.


Feels Like: 77 °F
Forecast: 74 / 93 °F
Wind: 3 mph from North

Location: Dushanbe Airport

Current Time: Jun 26, 2017 at 6:52:41 am

Latest Report: Jun 26, 2017 at 6:00 am


Visibility: N/A

Pressure: 29.80 "Hg (27.06 "Hg at 832m altitude)

Humidity: 53%

Dew Point: 54 °F

Location of DushanbeLocation

Past Weather in Dushanbe — Graph

°F

Dushanbe Temperature Yesterday

Maximum temperature yesterday: 91 °F (at 3:30 pm)
Minimum temperature yesterday: 70 °F (at 5:00 am)
Average temperature yesterday: 81 °F

High & Low Weather Summary for the Past Weeks

 TemperatureHumidityPressure
High102 °F (Jun 23, 2:00 pm)69% (Jun 25, 3:30 am)29.92 "Hg (Jun 25, 3:30 am)
Low66 °F (Jun 13, 4:30 am)9% (Jun 16, 5:00 pm)29.59 "Hg (Jun 21, 2:00 pm)
Average84 °F34%29.76 "Hg
* Reported Jun 11 5:00 am — Jun 26 5:30 am, Dushanbe. Weather by CustomWeather, © 2017

Note: Actual official high and low records may vary slightly from our data, if they occured in-between our weather recording intervals... More about our weather records

Advertising

Dushanbe Weather History for the Previous 24 Hours

Scroll right to see more
 ConditionsComfort  
Time TempWeatherWind HumidityBarometerVisibility
5:30 am
Mon, Jun 26
72 °FClear.3 mph53%29.80 "HgN/A
5:00 am72 °FClear.3 mph53%29.80 "HgN/A
4:30 am70 °FClear.1 mph60%29.80 "HgN/A
4:00 am73 °FClear.1 mph53%29.80 "HgN/A
3:30 am70 °FClear.3 mph57%29.80 "HgN/A
3:00 am72 °FClear.3 mph53%29.77 "HgN/A
2:30 am75 °FClear.3 mph47%29.77 "HgN/A
2:00 am77 °FClear.3 mph44%29.77 "HgN/A
1:30 am75 °FClear.3 mph47%29.77 "HgN/A
1:00 am75 °FClear.6 mph47%29.77 "HgN/A
12:30 am73 °FClear.3 mph50%29.77 "HgN/A
12:00 am77 °FClear.6 mph44%29.77 "HgN/A
11:30 pm
Sun, Jun 25
79 °FClear.8 mph42%29.77 "HgN/A
11:00 pm79 °FClear.8 mph42%29.77 "HgN/A
10:30 pm79 °FClear.8 mph42%29.77 "HgN/A
10:00 pm79 °FClear.6 mph48%29.77 "HgN/A
9:30 pm77 °FClear.8 mph51%29.77 "HgN/A
9:00 pm79 °FClear.10 mph48%29.77 "HgN/A
8:30 pm79 °FClear.6 mph48%29.77 "HgN/A
8:00 pm81 °FClear.8 mph48%29.77 "HgN/A
7:30 pm84 °FPassing clouds.6 mph40%29.77 "HgN/A
7:00 pm88 °FPassing clouds.3 mph31%29.77 "HgN/A
6:30 pm88 °FPassing clouds.3 mph33%29.77 "HgN/A
6:00 pm90 °FPassing clouds.6 mph29%29.74 "HgN/A
5:30 pm91 °FPassing clouds.3 mph26%29.77 "HgN/A
5:00 pm91 °FPassing clouds.8 mph26%29.77 "HgN/A
4:30 pm91 °FPassing clouds.6 mph28%29.77 "HgN/A
4:00 pm91 °FPassing clouds.8 mph28%29.77 "HgN/A
3:30 pm91 °FPassing clouds.6 mph28%29.80 "HgN/A
3:00 pm90 °FPassing clouds.10 mph27%29.80 "HgN/A
2:30 pm90 °FPassing clouds.6 mph29%29.80 "HgN/A
2:00 pm90 °FPassing clouds.8 mph31%29.83 "HgN/A
1:30 pm90 °FPassing clouds.10 mph31%29.83 "HgN/A
1:00 pm90 °FPassing clouds.8 mph33%29.83 "HgN/A
12:30 pm88 °FPassing clouds.13 mph31%29.83 "HgN/A
12:00 pm88 °FPassing clouds.13 mph31%29.86 "HgN/A
11:30 am86 °FPassing clouds.15 mph35%29.86 "HgN/A
11:00 am86 °FPassing clouds.17 mph35%29.86 "HgN/A
10:30 am82 °FPassing clouds.17 mph42%29.86 "HgN/A
10:00 am81 °FPassing clouds.22 mph45%29.86 "HgN/A
9:30 am81 °FPassing clouds.15 mph45%29.86 "HgN/A
9:00 am79 °FScattered clouds.13 mph51%29.86 "HgN/A
8:30 am77 °FPassing clouds.13 mph54%29.83 "HgN/A
8:00 am75 °FPartly sunny.13 mph57%29.83 "HgN/A
7:30 am73 °FPartly sunny.15 mph61%29.83 "HgN/A
7:00 am70 °FPartly sunny.8 mph69%29.83 "HgN/A
6:30 am70 °FPartly sunny.10 mph69%29.83 "HgN/A
6:00 am70 °FPassing clouds.20 mph69%29.83 "HgN/A
Weather by CustomWeather, © 2017

See weather overviewHow to use our weather pages